Regional Weather Roundup
Issued by NWS Sioux Falls, SD

Home | Current Version | Previous Version | Graphics & Text | Print | Product List | Glossary On
Versions: 1 2 3 4 5 6 7 8 9 10 11 12 13 14 15 16 17 18 19 20 21 22 23 24 25 26 27 28 29 30 31 32 33 34 35 36 37 38 39 40 41 42 43 44 45 46 47 48 49 50
312
ASUS43 KFSD 251410
RWRFSD

WEATHER ROUNDUP FOR SE SOUTH DAKOTA/SW MINNESOTA/NW IOWA
NATIONAL WEATHER SERVICE SIOUX FALLS SD
900 AM CDT MON JUL 25 2016

NOTE: "FAIR" INDICATES FEW OR NO CLOUDS BELOW 12,000 FEET WITH NO
SIGNIFICANT WEATHER AND OR OBSTRUCTIONS TO VISIBILITY.


SDZ038>040-050-052>070-251500-
SOUTHEAST SOUTH DAKOTA

CITY           SKY/WX    TMP DP  RH WIND       PRES   REMARKS
BROOKINGS      SUNNY     71  62  73 CALM      30.12S
CHAMBERLAIN    SUNNY     75  64  69 S8        30.12S
HURON          SUNNY     73  62  68 VRB3      30.09S
MADISON        FAIR      72  66  83 SW6       30.13S
MITCHELL       SUNNY     73  64  73 S6        30.12R
SIOUX FALLS    MOSUNNY   74  63  68 CALM      30.12S
WINNER         FAIR      75  52  44 S16       30.13R
YANKTON        SUNNY     70  63  78 CALM      30.12R
$$

MNZ071-072-080-081-089-090-097-098-251500-
SOUTHWEST MINNESOTA

CITY           SKY/WX    TMP DP  RH WIND       PRES   REMARKS
FAIRMONT       SUNNY     73  61  64 W6        30.11R
JACKSON        SUNNY     72  61  68 NW3       30.13S
LUVERNE        SUNNY     68  61  77 CALM      30.14S
MARSHALL       SUNNY     74  62  66 CALM      30.11R
MONTEVIDEO     SUNNY     75  64  69 CALM      30.11R
REDWOOD FALLS  SUNNY     72  61  68 CALM      30.10R
TRACY          SUNNY     75  63  64 CALM      30.12S
WINDOM         SUNNY     73  63  68 W3        30.13R
WORTHINGTON    SUNNY     74  64  71 CALM      30.14S
$$

IAZ001>003-012>014-020>022-031-032-NEZ013-014-SDZ071-251500-
NORTHWEST IOWA

CITY           SKY/WX    TMP DP  RH WIND       PRES   REMARKS
CHEROKEE       SUNNY     70  66  89 CALM      30.14R
DENISON        SUNNY     72  68  88 CALM      30.11F
ESTHERVILLE    SUNNY     71  67  87 W6        30.13R
LE MARS        SUNNY     70  63  78 CALM      30.14S
SHELDON        SUNNY     70  66  88 CALM      30.13S
SIOUX CITY     SUNNY     72  65  78 CALM      30.13S
SPENCER          N/A     70  64  81 SW3       30.14R
STORM LAKE     SUNNY     73  63  68 CALM      30.14S
$$

ABBREVIATIONS USED IN REMARKS
   TC - TEMPERATURE IN CELSIUS
  WCI - WIND CHILL INDEX
   HX - HEAT INDEX
  VSB - VISIBILITY





USA.gov is the U.S. government's official web portal to all federal, state and local government web resources and services.